When you browse on this site, cookies collect data to enhance your experience and personalize the content and advertising you see.
Visit our Privacy Policy to learn more. By continuing to use the site, you agree to this use of cookies and data.

Meteo pe oră la Nara

Astăzi, 8 Iulie, Miercuri

Timp Temperatura Precipitaţii Vânt Presiune Umiditate
00:00 +23°C° 0.4 mm 5 m/s 726 mmHg 89%
01:00 +23°C° 2.2 mm 4 m/s 725 mmHg 90%
02:00 +23°C° 2.2 mm 4 m/s 725 mmHg 91%
03:00 +23°C° 0 mm 4 m/s 724 mmHg 93%
04:00 +23°C° 3.4 mm 5 m/s 724 mmHg 92%
05:00 +23°C° 3.4 mm 6 m/s 724 mmHg 92%
06:00 +23°C° 3.4 mm 8 m/s 724 mmHg 91%
07:00 +22°C° 2.3 mm 6 m/s 724 mmHg 91%
08:00 +22°C° 2.3 mm 4 m/s 724 mmHg 91%
09:00 +23°C° 0 mm 1 m/s 725 mmHg 90%
10:00 +24°C° 0.5 mm 1 m/s 725 mmHg 85%
11:00 +26°C° 0.5 mm 1 m/s 725 mmHg 80%
12:00 +27°C° 0.5 mm 1 m/s 725 mmHg 75%
13:00 +27°C° 0.7 mm 2 m/s 725 mmHg 75%
14:00 +27°C° 0.7 mm 2 m/s 725 mmHg 76%
15:00 +28°C° 0.7 mm 3 m/s 725 mmHg 76%
16:00 +27°C° 0.2 mm 2 m/s 725 mmHg 77%
17:00 +27°C° 0.2 mm 2 m/s 725 mmHg 78%
18:00 +27°C° 0.2 mm 2 m/s 725 mmHg 80%
19:00 +26°C° 0.3 mm 3 m/s 725 mmHg 81%
20:00 +26°C° 0.3 mm 3 m/s 725 mmHg 83%
21:00 +25°C° 0.3 mm 3 m/s 726 mmHg 85%
22:00 +25°C° 0.2 mm 3 m/s 726 mmHg 85%
23:00 +25°C° 0.2 mm 3 m/s 725 mmHg 86%

Mâine, 9 Iulie, Joi

Timp Temperatura Precipitaţii Vânt Presiune Umiditate
00:00 +24°C° 0.2 mm 3 m/s 725 mmHg 86%
01:00 +24°C° 0.1 mm 3 m/s 725 mmHg 86%
02:00 +24°C° 0.1 mm 2 m/s 725 mmHg 86%
03:00 +24°C° 0.1 mm 2 m/s 725 mmHg 86%
04:00 +24°C° 2 mm 2 m/s 725 mmHg 87%
05:00 +24°C° 2 mm 2 m/s 725 mmHg 89%
06:00 +24°C° 2 mm 2 m/s 725 mmHg 90%
07:00 +24°C° 2.3 mm 2 m/s 726 mmHg 89%
08:00 +24°C° 2.3 mm 2 m/s 726 mmHg 89%
09:00 +24°C° 2.3 mm 2 m/s 726 mmHg 88%
10:00 +24°C° 4.3 mm 2 m/s 726 mmHg 89%
11:00 +22°C° 4.3 mm 3 m/s 727 mmHg 90%
12:00 +22°C° 4.3 mm 3 m/s 727 mmHg 91%
13:00 +22°C° 0.4 mm 4 m/s 727 mmHg 89%
14:00 +23°C° 0.4 mm 4 m/s 727 mmHg 86%
15:00 +23°C° 0.4 mm 5 m/s 726 mmHg 84%
16:00 +23°C° 1.4 mm 4 m/s 727 mmHg 85%
17:00 +24°C° 1.4 mm 3 m/s 727 mmHg 87%
18:00 +23°C° 1.4 mm 2 m/s 727 mmHg 88%
19:00 +23°C° 0.6 mm 2 m/s 727 mmHg 89%
20:00 +23°C° 0.6 mm 2 m/s 728 mmHg 89%
21:00 +23°C° 0.6 mm 2 m/s 728 mmHg 90%
22:00 +23°C° 0.3 mm 2 m/s 728 mmHg 89%
23:00 +22°C° 0.3 mm 3 m/s 728 mmHg 89%

Poimâine, 10 Iulie, Vineri

Timp Temperatura Precipitaţii Vânt Presiune Umiditate
00:00 +22°C° 0.3 mm 3 m/s 728 mmHg 88%
01:00 +22°C° 1 mm 3 m/s 728 mmHg 89%
02:00 +22°C° 1 mm 3 m/s 728 mmHg 89%
03:00 +22°C° 1 mm 4 m/s 728 mmHg 90%
04:00 +22°C° 1.1 mm 4 m/s 728 mmHg 90%
05:00 +22°C° 1.1 mm 3 m/s 728 mmHg 89%
06:00 +22°C° 1.1 mm 3 m/s 728 mmHg 89%
07:00 +22°C° 0.2 mm 3 m/s 728 mmHg 88%
08:00 +24°C° 0.2 mm 2 m/s 729 mmHg 86%
09:00 +24°C° 0.2 mm 2 m/s 729 mmHg 84%
10:00 +26°C° 0 mm 2 m/s 729 mmHg 74%
11:00 +29°C° 0 mm 1 m/s 729 mmHg 63%
12:00 +31°C° 0 mm 1 m/s 729 mmHg 53%
13:00 +31°C° 0.6 mm 1 m/s 729 mmHg 58%
14:00 +30°C° 0.6 mm 2 m/s 729 mmHg 63%
15:00 +29°C° 0.6 mm 2 m/s 728 mmHg 68%
16:00 +29°C° 0.6 mm 2 m/s 728 mmHg 70%
17:00 +28°C° 0.6 mm 2 m/s 728 mmHg 72%
18:00 +27°C° 0.6 mm 3 m/s 728 mmHg 75%
19:00 +27°C° 0 mm 3 m/s 728 mmHg 76%
20:00 +26°C° 0 mm 3 m/s 728 mmHg 78%
21:00 +26°C° 0 mm 3 m/s 728 mmHg 79%
22:00 +26°C° 0 mm 3 m/s 728 mmHg 80%
23:00 +25°C° 0 mm 3 m/s 728 mmHg 81%

11 Iulie, Sâmbătă

Timp Temperatura Precipitaţii Vânt Presiune Umiditate
00:00 +25°C° 0 mm 2 m/s 727 mmHg 81%
01:00 +25°C° 0.1 mm 2 m/s 727 mmHg 82%
02:00 +25°C° 0.1 mm 2 m/s 727 mmHg 83%
03:00 +25°C° 0.1 mm 2 m/s 727 mmHg 84%
04:00 +25°C° 0.2 mm 2 m/s 727 mmHg 84%
05:00 +25°C° 0.2 mm 2 m/s 727 mmHg 85%
06:00 +25°C° 0.2 mm 2 m/s 727 mmHg 85%
07:00 +25°C° 0.5 mm 3 m/s 727 mmHg 85%
08:00 +25°C° 0.5 mm 4 m/s 727 mmHg 84%
09:00 +26°C° 0.5 mm 4 m/s 727 mmHg 83%
10:00 +26°C° 0.6 mm 4 m/s 727 mmHg 82%
11:00 +26°C° 0.6 mm 5 m/s 727 mmHg 81%
12:00 +26°C° 0.6 mm 5 m/s 727 mmHg 79%
13:00 +26°C° 0.2 mm 5 m/s 727 mmHg 79%
14:00 +26°C° 0.2 mm 5 m/s 727 mmHg 79%
15:00 +26°C° 0.2 mm 5 m/s 726 mmHg 79%
16:00 +26°C° 0 mm 5 m/s 726 mmHg 78%
17:00 +26°C° 0 mm 5 m/s 726 mmHg 78%
18:00 +26°C° 0 mm 5 m/s 727 mmHg 78%
19:00 +26°C° 0.1 mm 5 m/s 727 mmHg 80%
20:00 +25°C° 0.1 mm 4 m/s 727 mmHg 83%
21:00 +25°C° 0.1 mm 4 m/s 727 mmHg 85%
22:00 +25°C° 0.2 mm 4 m/s 727 mmHg 86%
23:00 +24°C° 0.2 mm 3 m/s 727 mmHg 87%

12 Iulie, Duminică

Timp Temperatura Precipitaţii Vânt Presiune Umiditate
00:00 +24°C° 0.2 mm 3 m/s 727 mmHg 88%
01:00 +24°C° 1.3 mm 2 m/s 727 mmHg 89%
02:00 +24°C° 1.3 mm 2 m/s 727 mmHg 90%
03:00 +24°C° 1.3 mm 2 m/s 727 mmHg 91%
04:00 +24°C° 0.4 mm 2 m/s 727 mmHg 90%
05:00 +24°C° 0.4 mm 2 m/s 727 mmHg 89%
06:00 +24°C° 0.4 mm 2 m/s 727 mmHg 88%
07:00 +26°C° 0.6 mm 2 m/s 727 mmHg 83%
08:00 +27°C° 0.6 mm 2 m/s 728 mmHg 78%
09:00 +28°C° 0.6 mm 3 m/s 728 mmHg 73%
10:00 +29°C° 0.6 mm 3 m/s 728 mmHg 69%
11:00 +29°C° 0.6 mm 4 m/s 727 mmHg 66%
12:00 +30°C° 0.6 mm 5 m/s 727 mmHg 62%
13:00 +30°C° 0 mm 6 m/s 727 mmHg 61%
14:00 +30°C° 0 mm 7 m/s 727 mmHg 59%
15:00 +30°C° 0 mm 7 m/s 727 mmHg 58%
16:00 +29°C° 0 mm 6 m/s 727 mmHg 62%
17:00 +28°C° 0 mm 5 m/s 727 mmHg 66%
18:00 +27°C° 0 mm 4 m/s 727 mmHg 70%
19:00 +27°C° 0 mm 4 m/s 727 mmHg 72%
20:00 +26°C° 0 mm 3 m/s 727 mmHg 74%
21:00 +26°C° 0 mm 3 m/s 727 mmHg 76%
22:00 +25°C° 0.1 mm 3 m/s 727 mmHg 76%
23:00 +25°C° 0.1 mm 2 m/s 727 mmHg 75%

13 Iulie, Luni

Timp Temperatura Precipitaţii Vânt Presiune Umiditate
00:00 +25°C° 0.1 mm 2 m/s 727 mmHg 75%
01:00 +25°C° 0 mm 2 m/s 727 mmHg 75%
02:00 +25°C° 0 mm 2 m/s 726 mmHg 76%
03:00 +25°C° 0 mm 2 m/s 726 mmHg 76%
04:00 +25°C° 0.1 mm 2 m/s 726 mmHg 78%
05:00 +24°C° 0.1 mm 2 m/s 726 mmHg 79%
06:00 +24°C° 0.1 mm 2 m/s 726 mmHg 81%
07:00 +24°C° 1.6 mm 2 m/s 726 mmHg 84%
08:00 +24°C° 1.6 mm 2 m/s 726 mmHg 87%
09:00 +24°C° 1.6 mm 2 m/s 726 mmHg 90%
10:00 +24°C° 0.5 mm 2 m/s 726 mmHg 89%
11:00 +24°C° 0.5 mm 2 m/s 726 mmHg 89%
12:00 +24°C° 0.5 mm 2 m/s 726 mmHg 88%
13:00 +25°C° 0.2 mm 1 m/s 726 mmHg 87%
14:00 +25°C° 0.2 mm 1 m/s 726 mmHg 86%
15:00 +25°C° 0.2 mm 1 m/s 726 mmHg 85%
16:00 +25°C° 0.4 mm 1 m/s 726 mmHg 86%
17:00 +25°C° 0.4 mm 2 m/s 726 mmHg 87%
18:00 +24°C° 0.4 mm 2 m/s 726 mmHg 88%
19:00 +24°C° 1.3 mm 2 m/s 726 mmHg 89%
20:00 +24°C° 1.3 mm 3 m/s 726 mmHg 90%
21:00 +24°C° 1.3 mm 3 m/s 726 mmHg 90%
22:00 +24°C° 0.1 mm 3 m/s 726 mmHg 89%
23:00 +24°C° 0.1 mm 3 m/s 725 mmHg 89%
Arată mai mult